WIA55T TNCM-TFFJ

Flight info

Callsign WIA55T
Flight time 0h 10m
Altitude 7000
Route PJM
Aircraft DHC6/L-SDFGR/C

Departure

Time 2026-05-03 20:53
Airport Princess Juliana International Airport (TNCM)

Arrival

Time 2026-05-03 21:03
Airport St. Jean Airport (TFFJ)
Time Latitude Longitude Altitude Speed Heading
2026-05-03 20:30 18.04186 -63.10948 16 ft 0 kts 356°
2026-05-03 20:40 18.04185 -63.10948 16 ft 0 kts 356°
2026-05-03 20:44 18.04195 -63.10958 16 ft 4 kts 279°
2026-05-03 20:44 18.04178 -63.11017 16 ft 12 kts 243°
2026-05-03 20:45 18.04156 -63.11125 16 ft 15 kts 259°
2026-05-03 20:45 18.04141 -63.11228 16 ft 13 kts 262°
2026-05-03 20:45 18.04135 -63.11271 16 ft 7 kts 258°
2026-05-03 20:45 18.04115 -63.11292 16 ft 0 kts 179°
2026-05-03 20:50 18.04092 -63.11288 15 ft 8 kts 168°
2026-05-03 20:50 18.04042 -63.11256 15 ft 6 kts 76°
2026-05-03 20:51 18.04042 -63.11255 15 ft 0 kts 80°
2026-05-03 20:52 18.04048 -63.11205 16 ft 36 kts 81°
2026-05-03 20:53 18.04133 -63.10692 244 ft 86 kts 84°
2026-05-03 20:53 18.03989 -63.10103 653 ft 91 kts 128°
2026-05-03 20:53 18.03481 -63.09700 985 ft 91 kts 139°
2026-05-03 20:53 18.03001 -63.09288 1317 ft 91 kts 131°
2026-05-03 20:54 18.02521 -63.08816 1460 ft 98 kts 129°
2026-05-03 20:54 18.01674 -63.07774 1537 ft 93 kts 123°
2026-05-03 20:54 18.01300 -63.07257 1425 ft 86 kts 122°
2026-05-03 20:55 18.00932 -63.06684 1423 ft 97 kts 118°
2026-05-03 20:55 18.00569 -63.06060 1513 ft 106 kts 118°
2026-05-03 20:55 18.00190 -63.05371 1655 ft 111 kts 115°
2026-05-03 20:55 17.99845 -63.04628 1573 ft 121 kts 113°
2026-05-03 20:56 17.99473 -63.03815 1558 ft 120 kts 113°
2026-05-03 20:56 17.99125 -63.03062 1609 ft 113 kts 113°
2026-05-03 20:56 17.98765 -63.02301 1566 ft 119 kts 113°
2026-05-03 20:56 17.98388 -63.01499 1493 ft 124 kts 114°
2026-05-03 20:57 17.97995 -63.00702 1483 ft 123 kts 114°
2026-05-03 20:57 17.97606 -62.99903 1465 ft 124 kts 114°
2026-05-03 20:57 17.97216 -62.99086 1453 ft 125 kts 113°
2026-05-03 20:57 17.96811 -62.98290 1510 ft 121 kts 117°
2026-05-03 20:58 17.96367 -62.97538 1521 ft 123 kts 119°
2026-05-03 20:58 17.95906 -62.96764 1474 ft 126 kts 118°
2026-05-03 20:58 17.95466 -62.95975 1476 ft 124 kts 117°
2026-05-03 20:58 17.95063 -62.95163 1416 ft 128 kts 113°
2026-05-03 20:59 17.94696 -62.94335 1452 ft 122 kts 115°
2026-05-03 20:59 17.94259 -62.93576 1515 ft 120 kts 121°
2026-05-03 20:59 17.93790 -62.92844 1525 ft 123 kts 120°
2026-05-03 20:59 17.93358 -62.92085 1639 ft 116 kts 118°
2026-05-03 21:00 17.92935 -62.91358 1676 ft 118 kts 120°
2026-05-03 21:00 17.92793 -62.91123 1688 ft 118 kts 120°
2026-05-03 21:00 17.92031 -62.89832 1545 ft 128 kts 119°
2026-05-03 21:00 17.91561 -62.89060 1531 ft 115 kts 120°
2026-05-03 21:01 17.91164 -62.88470 1399 ft 91 kts 121°
2026-05-03 21:01 17.90822 -62.87976 1215 ft 75 kts 118°
2026-05-03 21:01 17.90557 -62.87533 1061 ft 77 kts 109°
2026-05-03 21:01 17.90396 -62.87058 952 ft 65 kts 97°
2026-05-03 21:02 17.90339 -62.86557 900 ft 72 kts 88°
2026-05-03 21:02 17.90320 -62.86101 824 ft 57 kts 88°
2026-05-03 21:02 17.90325 -62.85720 666 ft 58 kts 83°
2026-05-03 21:02 17.90354 -62.85323 486 ft 56 kts 82°
2026-05-03 21:03 17.90401 -62.84920 264 ft 57 kts 78°
2026-05-03 21:03 17.90433 -62.84460 43 ft 56 kts 83°
2026-05-03 21:03 17.90442 -62.84243 25 ft 17 kts 83°
2026-05-03 21:03 17.90443 -62.84217 22 ft 13 kts 270°
2026-05-03 21:04 17.90441 -62.84351 31 ft 12 kts 266°
2026-05-03 21:04 17.90390 -62.84403 35 ft 8 kts 244°
2026-05-03 21:04 17.90387 -62.84472 40 ft 5 kts 205°
2026-05-03 21:04 17.90373 -62.84454 39 ft 4 kts 94°
2026-05-03 21:05 17.90374 -62.84449 38 ft 0 kts 84°
2026-05-03 21:06 17.92093 -62.89938 1557 ft 128 kts 119°
2026-05-03 21:06 17.91623 -62.89156 1538 ft 119 kts 120°
2026-05-03 21:06 17.91213 -62.88541 1422 ft 90 kts 121°
2026-05-03 21:06 17.90892 -62.88078 1245 ft 79 kts 119°
2026-05-03 21:07 17.90611 -62.87641 1090 ft 72 kts 112°
2026-05-03 21:07 17.90423 -62.87161 998 ft 65 kts 100°
2026-05-03 21:07 17.90345 -62.86683 897 ft 72 kts 89°
2026-05-03 21:07 17.90325 -62.86203 854 ft 58 kts 87°
2026-05-03 21:08 17.90359 -62.85280 472 ft 55 kts 82°
2026-05-03 21:08 17.90406 -62.84876 235 ft 61 kts 79°
2026-05-03 21:08 17.90434 -62.84420 36 ft 53 kts 83°
2026-05-03 21:08 17.90443 -62.84233 24 ft 17 kts 81°